STARLINK-11613, 63136

Orbit data source: Space-Track

STARLINK-11613, 63136 is a payload satellite owned by SpaceX/Seattle (US) in LEO that was launched on Mon, 03 Mar 2025 UTC via an FALCON 9 launch vehicle from the Air Force Eastern Test Range (AFETR). Payload-class satellites include a variety of spacecraft equipped with specific instruments for various scientific and technological missions. These include communications satellites like Starlink; space stations such as the ISS; scientific satellites like the Hubble; Earth observation satellites from companies like Planet Labs, Umbra, and HawkEye 360; GPS; miniature CubeSats for education and research; and military/defense satellites.

Loading next visibility...
Identifier
63136, 2025-043E
Orbit
LEO
Country
Flag of USUS
Related business
Manufacturer
SpaceX/Seattle
Mission
Operational Commercial Communications
Bus & Motor
STARLINK V2MD, Unknown motor
Mass
960 kg wet, ~910 kg dry
Launch date (UTC)
2025-03-03 (10 months ago)
Launch vehicle
FALCON 9
Launch site
Air Force Eastern Test Range (AFETR)
Object type
Payload
Rocket body
Debris
Shape & HBR
Box + 2 Pan, 18.1 m
Radar Cross Section
36.964 m², Large (>1 m²)

Expand to show TLE details & history
Last TLE update: 10 hours ago

TLE from 10 hours ago
0 STARLINK-11613
1 63136U 25043E   25352.14579492  .00228344  00000-0  17262-2 0  9994
2 63136  42.9997  22.5727 0001968 269.9771  90.0871 15.70954657 46645
Epoch: 2025-12-18T03:29Z
TLE epoch observation values (Epoch: 2025-12-18T03:29:56.681Z)
Latitude
-0.00001°
Longitude
-116.91898°
Altitude
355.941 km
Speed
7.697 km/s
True Right ascension
01h 30m 17s
True Declination
0° 00' 00"
Sunlit
Object was in full shadow at epoch
Visualization orbit readout
Latitude
Unknown
Longitude
Unknown
Altitude
Unknown
Speed
Unknown
Apparent Right ascension
Unknown
Apparent Declination
Unknown
Sunlit
N/A
Visualization observer readout
Local Sidereal Time
11:54:45
Azimuth
Unknown
Elevation
Unknown
Doppler factor
Unknown
Orbital elements
Apogee altitude
359.475 km
Perigee altitude
356.823 km
Semi-major axis
6,736.286 km
Eccentricity
0.0002
Inclination
42.9997°
RAAN
22.5727°
Arg. of periapsis
269.9771°
True anomaly
90.10965°
Mean anomaly
90.0871°
Eccentric anomaly
90.09838°
Mean motion
3.92566 °/min
Orbital period
91.7 mins
BSTAR
0.0017262
Loading maneuver chart data...
Computing Atmospheric mass density...
Loading historical data...
Loading historical data...
Loading historical data...
Loading historical data...
Loading historical data...
Loading historical data...
Loading historical data...

Documentation

Showing up to 5 results
|